THOR ABLESTAR DEB, 159

Orbit data source: Space-Track

THOR ABLESTAR DEB, 159 is space debris in LEO originally from a launch on Thu, 29 Jun 1961 UTC launched from the Air Force Eastern Test Range (AFETR). Debris objects in space refer to the collection of defunct objects orbiting the Earth. Examples of debris include non-operational satellites, rocket bodies, and fragments generated from explosions, collisions, or faulty payload assembly.

Loading next visibility...
Identifier
159, 1961-015AV
Orbit
LEO
Country
Flag of USUS
Related business
Manufacturer
Unknown
Mission
Spacecraft
Bus & Motor
Unknown
Mass
Unknown
Launch date (UTC)
1961-06-29 (64 years ago)
Launch vehicle
Unknown
Launch site
Air Force Eastern Test Range (AFETR)
Object type
Payload
Rocket body
Debris
Shape & HBR
Unknown shape, 0.2 m
Radar Cross Section
Medium (>0.1 m² and <1 m²)

Expand to show TLE details & history
Last TLE update: 7 hours ago

TLE from 7 hours ago
0 THOR ABLESTAR DEB
1 00159U 61015AV  25346.99183481  .00000222  00000-0  66241-3 0  9999
2 00159  65.5266 286.2651 0374955 230.7287 125.9917 13.02985939 56597
Epoch: 2025-12-12T23:48Z
TLE epoch observation values (Epoch: 2025-12-12T23:48:14.527Z)
Latitude
-0.00004°
Longitude
-152.72096°
Altitude
1,427.205 km
Speed
7.066 km/s
True Right ascension
19h 05m 03s
True Declination
0° 00' 00"
Sunlit
Object was in daylight at epoch
Visualization orbit readout
Latitude
Unknown
Longitude
Unknown
Altitude
Unknown
Speed
Unknown
Apparent Right ascension
Unknown
Apparent Declination
Unknown
Sunlit
N/A
Visualization observer readout
Local Sidereal Time
05:22:00
Azimuth
Unknown
Elevation
Unknown
Doppler factor
Unknown
Orbital elements
Apogee altitude
1,534.999 km
Perigee altitude
963.031 km
Semi-major axis
7,627.152 km
Eccentricity
0.0375
Inclination
65.5266°
RAAN
286.2651°
Arg. of periapsis
230.7287°
True anomaly
129.3729°
Mean anomaly
125.9917°
Eccentric anomaly
127.6917°
Mean motion
3.25836 °/min
Orbital period
110.48 mins
BSTAR
0.00066241
Loading maneuver chart data...
Computing Atmospheric mass density...
Loading historical data...
Loading historical data...
Loading historical data...
Loading historical data...
Loading historical data...
Loading historical data...
Loading historical data...

Documentation

Showing up to 5 results
|